JES3107 SACO-SABE

Flight info

Callsign JES3107
Flight time 0h 55m
Altitude 37000
Route UTRAX1G UTRAX UW24 SNT SNT9R
Aircraft A320/M-SDE3FGHIRWY/LB1

Departure

Time 2026-05-07 20:29
Airport Ingeniero Aeronáutico Ambrosio L.V. Taravella International Airport (SACO)

Arrival

Time 2026-05-07 21:24
Airport Aeroparque Jorge Newbery (SABE)
Time Latitude Longitude Altitude Speed Heading
2026-05-07 19:54 -31.31580 -64.21178 1566 ft 0 kts 250°
2026-05-07 20:18 -31.31579 -64.21177 1566 ft 1 kts 249°
2026-05-07 20:18 -31.31576 -64.21160 1566 ft 2 kts 251°
2026-05-07 20:18 -31.31571 -64.21144 1565 ft 2 kts 250°
2026-05-07 20:18 -31.31566 -64.21127 1565 ft 2 kts 250°
2026-05-07 20:19 -31.31564 -64.21111 1564 ft 2 kts 288°
2026-05-07 20:19 -31.31572 -64.21096 1563 ft 2 kts 325°
2026-05-07 20:19 -31.31586 -64.21090 1563 ft 2 kts
2026-05-07 20:19 -31.31597 -64.21093 1563 ft 0 kts
2026-05-07 20:20 -31.31595 -64.21092 1563 ft 0 kts
2026-05-07 20:22 -31.31588 -64.21092 1563 ft 2 kts
2026-05-07 20:22 -31.31562 -64.21088 1564 ft 3 kts 11°
2026-05-07 20:22 -31.31547 -64.21083 1564 ft 1 kts 15°
2026-05-07 20:23 -31.31528 -64.21076 1565 ft 3 kts 18°
2026-05-07 20:23 -31.31501 -64.21064 1566 ft 5 kts 23°
2026-05-07 20:23 -31.31464 -64.21027 1566 ft 7 kts 57°
2026-05-07 20:23 -31.31455 -64.20954 1563 ft 10 kts 89°
2026-05-07 20:24 -31.31442 -64.20853 1560 ft 13 kts 64°
2026-05-07 20:24 -31.31362 -64.20824 1560 ft 12 kts 360°
2026-05-07 20:24 -31.31276 -64.20824 1562 ft 13 kts 360°
2026-05-07 20:24 -31.31164 -64.20824 1564 ft 18 kts 359°
2026-05-07 20:25 -31.31033 -64.20829 1570 ft 18 kts 356°
2026-05-07 20:25 -31.30911 -64.20834 1573 ft 17 kts 359°
2026-05-07 20:25 -31.30780 -64.20835 1576 ft 19 kts 359°
2026-05-07 20:25 -31.30647 -64.20836 1581 ft 19 kts 360°
2026-05-07 20:26 -31.30473 -64.20839 1585 ft 27 kts 358°
2026-05-07 20:26 -31.30288 -64.20843 1592 ft 25 kts 359°
2026-05-07 20:26 -31.30116 -64.20845 1596 ft 24 kts 359°
2026-05-07 20:26 -31.29957 -64.20847 1602 ft 21 kts 359°
2026-05-07 20:27 -31.29810 -64.20849 1604 ft 20 kts 359°
2026-05-07 20:27 -31.29673 -64.20867 1608 ft 18 kts 346°
2026-05-07 20:27 -31.29585 -64.20886 1611 ft 6 kts 24°
2026-05-07 20:27 -31.29598 -64.20853 1610 ft 7 kts 180°
2026-05-07 20:28 -31.29606 -64.20853 1610 ft 7 kts 181°
2026-05-07 20:28 -31.29951 -64.20849 1602 ft 92 kts 179°
2026-05-07 20:28 -31.30840 -64.20831 1576 ft 162 kts 179°
2026-05-07 20:28 -31.32081 -64.20822 2024 ft 185 kts 180°
2026-05-07 20:29 -31.33347 -64.20670 2837 ft 188 kts 157°
2026-05-07 20:29 -31.34435 -64.19791 3515 ft 199 kts 140°
2026-05-07 20:29 -31.35533 -64.18670 3981 ft 224 kts 136°
2026-05-07 20:29 -31.36727 -64.17360 4566 ft 245 kts 136°
2026-05-07 20:30 -31.37979 -64.15966 5311 ft 256 kts 136°
2026-05-07 20:30 -31.39285 -64.14584 6327 ft 255 kts 137°
2026-05-07 20:30 -31.40591 -64.13229 7218 ft 257 kts 137°
2026-05-07 20:30 -31.41929 -64.11835 8053 ft 262 kts 137°
2026-05-07 20:31 -31.43291 -64.10411 8871 ft 267 kts 137°
2026-05-07 20:31 -31.44677 -64.08958 9677 ft 272 kts 137°
2026-05-07 20:31 -31.46038 -64.07343 10203 ft 289 kts 127°
2026-05-07 20:31 -31.47234 -64.05348 10585 ft 310 kts 122°
2026-05-07 20:32 -31.48463 -64.03175 10944 ft 331 kts 123°
2026-05-07 20:32 -31.49787 -64.00883 11272 ft 351 kts 123°
2026-05-07 20:32 -31.51197 -63.98488 11730 ft 363 kts 124°
2026-05-07 20:32 -31.52659 -63.96036 12361 ft 370 kts 124°
2026-05-07 20:33 -31.54147 -63.93562 13019 ft 374 kts 125°
2026-05-07 20:33 -31.55665 -63.91049 13669 ft 379 kts 125°
2026-05-07 20:33 -31.57205 -63.88506 14300 ft 383 kts 125°
2026-05-07 20:33 -31.58766 -63.85932 14913 ft 387 kts 125°
2026-05-07 20:34 -31.60340 -63.83338 15506 ft 391 kts 125°
2026-05-07 20:34 -31.61939 -63.80701 16087 ft 396 kts 125°
2026-05-07 20:34 -31.63544 -63.78055 16651 ft 400 kts 125°
2026-05-07 20:34 -31.65151 -63.75405 17196 ft 403 kts 126°
2026-05-07 20:35 -31.66790 -63.72698 17734 ft 407 kts 126°
2026-05-07 20:35 -31.68442 -63.69971 18257 ft 411 kts 126°
2026-05-07 20:35 -31.70132 -63.67178 18774 ft 415 kts 126°
2026-05-07 20:35 -31.71801 -63.64417 19266 ft 419 kts 126°
2026-05-07 20:36 -31.73498 -63.61608 19754 ft 422 kts 126°
2026-05-07 20:36 -31.75213 -63.58767 20229 ft 426 kts 126°
2026-05-07 20:36 -31.76938 -63.55909 20695 ft 429 kts 126°
2026-05-07 20:36 -31.78676 -63.53026 21150 ft 433 kts 126°
2026-05-07 20:37 -31.80431 -63.50113 21593 ft 436 kts 126°
2026-05-07 20:37 -31.82195 -63.47183 22027 ft 439 kts 126°
2026-05-07 20:37 -31.83980 -63.44216 22455 ft 442 kts 126°
2026-05-07 20:37 -31.85773 -63.41233 22871 ft 446 kts 126°
2026-05-07 20:38 -31.87573 -63.38235 23275 ft 449 kts 126°
2026-05-07 20:38 -31.89435 -63.35260 23669 ft 451 kts 130°
2026-05-07 20:38 -31.91413 -63.32334 24046 ft 455 kts 129°
2026-05-07 20:38 -31.93375 -63.29417 24418 ft 457 kts 129°
2026-05-07 20:39 -31.95368 -63.26456 24787 ft 460 kts 129°
2026-05-07 20:39 -31.97372 -63.23476 25148 ft 463 kts 129°
2026-05-07 20:39 -31.99385 -63.20482 25500 ft 466 kts 130°
2026-05-07 20:39 -32.01411 -63.17468 25846 ft 468 kts 130°
2026-05-07 20:40 -32.03423 -63.14471 26182 ft 471 kts 130°
2026-05-07 20:40 -32.05474 -63.11414 26516 ft 473 kts 130°
2026-05-07 20:40 -32.07533 -63.08345 26806 ft 477 kts 130°
2026-05-07 20:40 -32.09606 -63.05250 27068 ft 481 kts 130°
2026-05-07 20:41 -32.11704 -63.02116 27318 ft 485 kts 129°
2026-05-07 20:41 -32.13806 -62.98974 27565 ft 489 kts 129°
2026-05-07 20:41 -32.15962 -62.95748 27811 ft 493 kts 129°
2026-05-07 20:41 -32.18105 -62.92539 28042 ft 497 kts 129°
2026-05-07 20:42 -32.20245 -62.89332 28259 ft 501 kts 129°
2026-05-07 20:42 -32.22409 -62.86086 28474 ft 505 kts 129°
2026-05-07 20:42 -32.24588 -62.82815 28736 ft 507 kts 129°
2026-05-07 20:42 -32.26785 -62.79513 29003 ft 510 kts 129°
2026-05-07 20:43 -32.28977 -62.76216 29259 ft 512 kts 129°
2026-05-07 20:43 -32.31162 -62.72928 29507 ft 514 kts 129°
2026-05-07 20:43 -32.33379 -62.69588 29754 ft 517 kts 129°
2026-05-07 20:43 -32.35603 -62.66233 30001 ft 519 kts 130°
2026-05-07 20:44 -32.37837 -62.62863 30243 ft 521 kts 130°
2026-05-07 20:44 -32.40082 -62.59471 30479 ft 523 kts 130°
2026-05-07 20:44 -32.42329 -62.56073 30708 ft 525 kts 130°
2026-05-07 20:44 -32.44583 -62.52662 31036 ft 524 kts 130°
2026-05-07 20:45 -32.46829 -62.49260 31375 ft 524 kts 130°
2026-05-07 20:45 -32.49053 -62.45888 31689 ft 523 kts 130°
2026-05-07 20:45 -32.51304 -62.42474 31995 ft 523 kts 130°
2026-05-07 20:45 -32.53526 -62.39099 32295 ft 523 kts 130°
2026-05-07 20:46 -32.55795 -62.35650 32593 ft 523 kts 131°
2026-05-07 20:46 -32.58076 -62.32179 32864 ft 522 kts 130°
2026-05-07 20:46 -32.60289 -62.28808 33116 ft 522 kts 130°
2026-05-07 20:46 -32.62509 -62.25424 33373 ft 522 kts 130°
2026-05-07 20:47 -32.64744 -62.22013 33629 ft 522 kts 131°
2026-05-07 20:47 -32.66964 -62.18624 33877 ft 522 kts 131°
2026-05-07 20:47 -32.69162 -62.15168 34124 ft 523 kts 128°
2026-05-07 20:47 -32.71248 -62.11601 34375 ft 523 kts 127°
2026-05-07 20:48 -32.73312 -62.08071 34627 ft 522 kts 127°
2026-05-07 20:48 -32.75382 -62.04531 34878 ft 521 kts 127°
2026-05-07 20:48 -32.77451 -62.00988 35123 ft 521 kts 127°
2026-05-07 20:48 -32.79530 -61.97425 35369 ft 520 kts 127°
2026-05-07 20:49 -32.81568 -61.93928 35603 ft 520 kts 127°
2026-05-07 20:49 -32.83633 -61.90381 35836 ft 519 kts 127°
2026-05-07 20:49 -32.85688 -61.86848 36063 ft 519 kts 127°
2026-05-07 20:49 -32.87749 -61.83302 36285 ft 519 kts 127°
2026-05-07 20:50 -32.89793 -61.79783 36493 ft 518 kts 128°
2026-05-07 20:50 -32.91828 -61.76279 36689 ft 518 kts 128°
2026-05-07 20:50 -32.93878 -61.72746 36857 ft 519 kts 128°
2026-05-07 20:51 -32.97995 -61.65638 36909 ft 517 kts 127°
2026-05-07 20:51 -33.02046 -61.58629 36911 ft 509 kts 127°
2026-05-07 20:52 -33.06004 -61.51765 36910 ft 500 kts 127°
2026-05-07 20:52 -33.09916 -61.44969 36911 ft 493 kts 127°
2026-05-07 20:53 -33.13767 -61.38264 36907 ft 486 kts 126°
2026-05-07 20:53 -33.17563 -61.31643 36867 ft 480 kts 126°
2026-05-07 20:54 -33.21298 -61.25118 36859 ft 477 kts 126°
2026-05-07 20:54 -33.25039 -61.18570 36869 ft 476 kts 126°
2026-05-07 20:55 -33.28798 -61.11978 36908 ft 485 kts 126°
2026-05-07 20:55 -33.32608 -61.05248 36908 ft 495 kts 126°
2026-05-07 20:56 -33.36514 -60.98333 36907 ft 504 kts 126°
2026-05-07 20:56 -33.40451 -60.91330 36908 ft 510 kts 126°
2026-05-07 20:57 -33.44393 -60.84306 36907 ft 509 kts 126°
2026-05-07 20:57 -33.48342 -60.77258 36907 ft 507 kts 126°
2026-05-07 20:58 -33.52267 -60.70236 36903 ft 507 kts 126°
2026-05-07 20:58 -33.56190 -60.63208 36898 ft 506 kts 126°
2026-05-07 20:59 -33.60101 -60.56186 36896 ft 506 kts 126°
2026-05-07 20:59 -33.64018 -60.49140 36896 ft 506 kts 126°
2026-05-07 21:00 -33.67906 -60.42133 36900 ft 507 kts 126°
2026-05-07 21:00 -33.71823 -60.35059 36905 ft 507 kts 126°
2026-05-07 21:01 -33.75645 -60.28145 36901 ft 506 kts 126°
2026-05-07 21:01 -33.77591 -60.24618 36562 ft 510 kts 126°
2026-05-07 21:01 -33.79549 -60.21067 35895 ft 514 kts 126°
2026-05-07 21:01 -33.81540 -60.17452 35098 ft 518 kts 126°
2026-05-07 21:02 -33.83528 -60.13839 34283 ft 522 kts 126°
2026-05-07 21:02 -33.85535 -60.10213 33495 ft 524 kts 126°
2026-05-07 21:02 -33.87588 -60.06554 32745 ft 525 kts 126°
2026-05-07 21:02 -33.89608 -60.02953 32027 ft 526 kts 125°
2026-05-07 21:03 -33.91644 -59.99313 31297 ft 526 kts 125°
2026-05-07 21:03 -33.93707 -59.95619 30546 ft 526 kts 124°
2026-05-07 21:03 -33.95747 -59.91961 30005 ft 521 kts 124°
2026-05-07 21:03 -33.97739 -59.88387 29634 ft 513 kts 124°
2026-05-07 21:04 -33.99718 -59.84833 29260 ft 506 kts 124°
2026-05-07 21:04 -34.01677 -59.81310 28813 ft 500 kts 124°
2026-05-07 21:04 -34.03603 -59.77844 28343 ft 495 kts 124°
2026-05-07 21:04 -34.05495 -59.74433 27630 ft 486 kts 124°
2026-05-07 21:05 -34.07378 -59.71039 26709 ft 478 kts 123°
2026-05-07 21:05 -34.09207 -59.67739 25830 ft 469 kts 123°
2026-05-07 21:05 -34.11010 -59.64481 25188 ft 465 kts 123°
2026-05-07 21:05 -34.12793 -59.61256 24764 ft 458 kts 123°
2026-05-07 21:06 -34.14543 -59.58087 23874 ft 451 kts 123°
2026-05-07 21:06 -34.16267 -59.54966 22965 ft 443 kts 123°
2026-05-07 21:06 -34.17948 -59.51918 22075 ft 436 kts 123°
2026-05-07 21:06 -34.19619 -59.48886 21270 ft 427 kts 122°
2026-05-07 21:07 -34.21268 -59.45889 20723 ft 425 kts 122°
2026-05-07 21:07 -34.22906 -59.42897 20196 ft 421 kts 122°
2026-05-07 21:07 -34.24464 -59.39942 19680 ft 418 kts 121°
2026-05-07 21:07 -34.26015 -59.36980 19160 ft 414 kts 121°
2026-05-07 21:08 -34.27568 -59.34019 18635 ft 411 kts 121°
2026-05-07 21:08 -34.29094 -59.31112 18118 ft 407 kts 121°
2026-05-07 21:08 -34.30620 -59.28205 17595 ft 403 kts 121°
2026-05-07 21:08 -34.32120 -59.25349 17078 ft 400 kts 121°
2026-05-07 21:09 -34.33605 -59.22519 16564 ft 396 kts 121°
2026-05-07 21:09 -34.35076 -59.19715 16051 ft 392 kts 121°
2026-05-07 21:09 -34.36541 -59.16919 15536 ft 389 kts 121°
2026-05-07 21:09 -34.37987 -59.14159 15030 ft 385 kts 121°
2026-05-07 21:10 -34.39413 -59.11435 14528 ft 381 kts 121°
2026-05-07 21:10 -34.40825 -59.08734 14026 ft 377 kts 121°
2026-05-07 21:10 -34.42233 -59.06040 13524 ft 373 kts 121°
2026-05-07 21:10 -34.43607 -59.03410 13031 ft 369 kts 121°
2026-05-07 21:11 -34.44986 -59.00767 12536 ft 366 kts 122°
2026-05-07 21:11 -34.46346 -58.98158 12046 ft 362 kts 122°
2026-05-07 21:11 -34.48997 -58.93069 11083 ft 355 kts 122°
2026-05-07 21:12 -34.50320 -58.90526 10606 ft 351 kts 122°
2026-05-07 21:12 -34.51614 -58.88036 10305 ft 343 kts 122°
2026-05-07 21:12 -34.52870 -58.85620 10101 ft 332 kts 123°
2026-05-07 21:12 -34.54081 -58.83290 9951 ft 320 kts 123°
2026-05-07 21:13 -34.55240 -58.81056 9822 ft 308 kts 123°
2026-05-07 21:13 -34.56303 -58.78834 9698 ft 297 kts 114°
2026-05-07 21:13 -34.56998 -58.76466 9476 ft 291 kts 109°
2026-05-07 21:13 -34.57636 -58.74147 9155 ft 289 kts 109°
2026-05-07 21:14 -34.58273 -58.71846 8829 ft 287 kts 109°
2026-05-07 21:14 -34.58912 -58.69535 8505 ft 285 kts 109°
2026-05-07 21:14 -34.59546 -58.67242 8183 ft 283 kts 109°
2026-05-07 21:14 -34.60166 -58.64996 7868 ft 281 kts 109°
2026-05-07 21:15 -34.60791 -58.62729 7547 ft 280 kts 109°
2026-05-07 21:15 -34.61400 -58.60516 7236 ft 278 kts 109°
2026-05-07 21:15 -34.62002 -58.58270 6921 ft 277 kts 109°
2026-05-07 21:15 -34.62584 -58.56083 6613 ft 275 kts 109°
2026-05-07 21:16 -34.63181 -58.53837 6298 ft 274 kts 109°
2026-05-07 21:16 -34.63768 -58.51631 5992 ft 273 kts 109°
2026-05-07 21:16 -34.64348 -58.49451 5687 ft 272 kts 109°
2026-05-07 21:16 -34.64926 -58.47274 5384 ft 270 kts 109°
2026-05-07 21:17 -34.65507 -58.45085 5079 ft 269 kts 109°
2026-05-07 21:17 -34.66087 -58.42904 4776 ft 268 kts 109°
2026-05-07 21:17 -34.66656 -58.40759 4478 ft 267 kts 109°
2026-05-07 21:17 -34.67232 -58.38586 4221 ft 266 kts 109°
2026-05-07 21:18 -34.67800 -58.36442 3895 ft 266 kts 109°
2026-05-07 21:18 -34.68370 -58.34287 3708 ft 261 kts 109°
2026-05-07 21:18 -34.68911 -58.32246 3571 ft 246 kts 108°
2026-05-07 21:18 -34.69420 -58.30320 3491 ft 235 kts 109°
2026-05-07 21:19 -34.69922 -58.28425 3428 ft 234 kts 108°
2026-05-07 21:19 -34.70229 -58.26485 3356 ft 235 kts 83°
2026-05-07 21:19 -34.69605 -58.24686 3283 ft 232 kts 42°
2026-05-07 21:19 -34.68245 -58.23788 3213 ft 222 kts
2026-05-07 21:20 -34.66708 -58.23774 3138 ft 217 kts 346°
2026-05-07 21:20 -34.65438 -58.24527 3004 ft 199 kts 311°
2026-05-07 21:20 -34.64658 -58.25886 2720 ft 193 kts 301°
2026-05-07 21:20 -34.63920 -58.27249 2555 ft 193 kts 302°
2026-05-07 21:21 -34.63179 -58.28582 2434 ft 184 kts 302°
2026-05-07 21:21 -34.62487 -58.29820 2133 ft 174 kts 302°
2026-05-07 21:21 -34.61832 -58.30992 1886 ft 162 kts 302°
2026-05-07 21:21 -34.61219 -58.32087 1677 ft 151 kts 302°
2026-05-07 21:22 -34.60644 -58.33113 1481 ft 140 kts 301°
2026-05-07 21:22 -34.60107 -58.34074 1311 ft 134 kts 302°
2026-05-07 21:22 -34.59578 -58.35017 1145 ft 134 kts 301°
2026-05-07 21:22 -34.59056 -58.35954 975 ft 134 kts 301°
2026-05-07 21:23 -34.58537 -58.36884 785 ft 133 kts 302°
2026-05-07 21:23 -34.58012 -58.37821 598 ft 135 kts 302°
2026-05-07 21:23 -34.57474 -58.38791 393 ft 137 kts 301°
2026-05-07 21:23 -34.56939 -58.39762 261 ft 139 kts 303°
2026-05-07 21:24 -34.56392 -58.40733 82 ft 141 kts 301°
2026-05-07 21:24 -34.55861 -58.41695 27 ft 118 kts 307°
2026-05-07 21:24 -34.55559 -58.42230 27 ft 50 kts 303°
2026-05-07 21:24 -34.55431 -58.42460 27 ft 17 kts 305°
2026-05-07 21:25 -34.55353 -58.42487 27 ft 11 kts 59°
2026-05-07 21:25 -34.55365 -58.42406 27 ft 10 kts 101°
2026-05-07 21:25 -34.55395 -58.42327 27 ft 10 kts 130°
2026-05-07 21:25 -34.55443 -58.42255 27 ft 11 kts 127°
2026-05-07 21:26 -34.55489 -58.42175 27 ft 12 kts 126°
2026-05-07 21:26 -34.55540 -58.42092 27 ft 12 kts 128°
2026-05-07 21:26 -34.55595 -58.42003 27 ft 13 kts 124°
2026-05-07 21:26 -34.55651 -58.41902 27 ft 14 kts 123°
2026-05-07 21:27 -34.55711 -58.41794 27 ft 15 kts 123°
2026-05-07 21:27 -34.55766 -58.41674 27 ft 16 kts 116°
2026-05-07 21:27 -34.55819 -58.41545 27 ft 17 kts 116°
2026-05-07 21:27 -34.55867 -58.41428 27 ft 12 kts 117°
2026-05-07 21:28 -34.55905 -58.41340 27 ft 10 kts 114°
2026-05-07 21:28 -34.55868 -58.41286 27 ft 9 kts 14°
2026-05-07 21:28 -34.55820 -58.41315 27 ft 8 kts 307°
2026-05-07 21:28 -34.55791 -58.41352 27 ft 3 kts 16°
2026-05-07 21:29 -34.55769 -58.41331 27 ft 4 kts 37°
2026-05-07 21:29 -34.55757 -58.41322 27 ft 0 kts 36°